Home   Weather   New Salem   Past weeks

Flag for USA Past Weather in New Salem, North Dakota, USA — Yesterday and Last 2 Weeks

Now
59 °F

Sunny.


Feels Like: 57 °F
Forecast: 51 / 75 °F
Wind: 13 mph from Southeast

Location: Bismarck Municipal Airport

Current Time: Oct 1, 2016 at 10:42:38 AM

Latest Report: Oct 1, 2016 at 9:52 AM


Visibility: 10 mi

Pressure: 30.03 "Hg (27.75 "Hg at 664m altitude)

Humidity: 64%

Dew Point: 47 °F

Location of New SalemLocation

Past Weather in New Salem — Graph

°F

New Salem Temperature Yesterday

Maximum temperature yesterday: 72 °F (at 1:52 PM)
Minimum temperature yesterday: 51 °F (at 1:52 AM)
Average temperature yesterday: 60 °F

High & Low Weather Summary for the Past Weeks

 TemperatureHumidityPressure
High82 °F (Sep 17, 3:52 PM)100% (Sep 17, 5:52 AM)30.43 "Hg (Sep 17, 5:52 AM)
Low37 °F (Sep 27, 7:52 AM)23% (Sep 18, 4:52 PM)29.61 "Hg (Sep 18, 5:52 AM)
Average59 °F67%30.02 "Hg
* Reported Sep 16 8:52 AM — Oct 1 8:52 AM, New Salem, Weather by CustomWeather, © 2016

Note: Actual official high and low records may vary slightly from our data, if they occured in-between our weather recording intervals... More about our weather records

Advertising

New Salem Weather History for the Previous 24 Hours

Scroll right to see more
 ConditionsComfort  
Time TempWeatherWind HumidityBarometerVisibility
8:52 AM
Sat, Oct 1
55 °FSunny.9 mph72%30.03 "Hg10 mi
7:52 AM52 °FSunny.7 mph77%30.03 "Hg10 mi
6:52 AM51 °FClear.8 mph80%30.02 "Hg10 mi
5:52 AM55 °FClear.10 mph69%30.01 "Hg10 mi
4:52 AM58 °FClear.12 mph62%30.02 "Hg10 mi
3:52 AM58 °FClear.7 mph62%30.03 "Hg10 mi
2:52 AM59 °FClear.9 mph60%30.04 "Hg10 mi
1:52 AM60 °FClear.10 mph60%30.05 "Hg10 mi
12:52 AM60 °FClear.8 mph60%30.06 "Hg10 mi
11:52 PM
Fri, Sep 30
61 °FClear.9 mph58%30.06 "Hg10 mi
10:52 PM62 °FClear.9 mph54%30.07 "Hg10 mi
9:52 PM63 °FClear.14 mph54%30.06 "Hg10 mi
8:52 PM63 °FClear.12 mph56%30.07 "Hg10 mi
7:52 PM64 °FClear.12 mph52%30.08 "Hg10 mi
6:52 PM68 °FPassing clouds.15 mph44%30.06 "Hg10 mi
5:52 PM69 °FMostly cloudy.12 mph45%30.06 "Hg10 mi
4:52 PM68 °FSunny.15 mph49%30.08 "Hg10 mi
3:52 PM68 °FSunny.14 mph49%30.09 "Hg10 mi
2:52 PM71 °FLight rain. Sunny.23 mph42%30.09 "Hg10 mi
1:52 PM72 °FSunny.17 mph44%30.11 "Hg10 mi
12:52 PM66 °FSunny.18 mph52%30.12 "Hg10 mi
11:52 AM64 °FLight rain. Sunny.20 mph56%30.15 "Hg10 mi
10:52 AM59 °FSunny.13 mph67%30.17 "Hg10 mi
Weather by CustomWeather, © 2016

See weather overviewHow to use our weather pages